Location: Campo Alegre
(10.1673°N, 67.4431°W)
Time: 12:26:47
(UTC+00:00)

PAYLOAD B - Pass Details

Date: 14 April 2024
Orbit: 848 x 870 km, 99.1° (Epoch: 30 May)

Event Time Altitude Azimuth Distance (km) Brightness Sun altitude
Exits shadow 00:26:26 51° 174° (S) 1,056 4.5 -26.3°
Maximum altitude 00:27:53 85° 256° (WSW) 859 4.1 -26.6°
Drops below altitude 10° 00:33:24 10° 346° (NNW) 2,483 7.0 -27.9°
Sets 00:35:46 0° 346° (NNW) 3,423 7.7 -28.5°
